• In Italy
  • List of Countries
  • For 7 days
  • Water Temperature
  • Satellite Maps
  • Weather Map
  • Weather Widgets
  • user-avatar
    Login

    Hourly Weather Novoukrainka

    Today, 22 July, Sunday

    Time Temperature Precipitation Wind Pressure Humidity
    00:00 +20°C° 0 mm 3 mps 743 mmHg 89%
    01:00 +20°C° 0 mm 3 mps 743 mmHg 90%
    02:00 +19°C° 0 mm 3 mps 743 mmHg 91%
    03:00 +19°C° 0 mm 3 mps 743 mmHg 92%
    04:00 +19°C° 0 mm 3 mps 743 mmHg 92%
    05:00 +19°C° 0 mm 3 mps 743 mmHg 93%
    06:00 +20°C° 0 mm 3 mps 743 mmHg 87%
    07:00 +22°C° 0 mm 3 mps 743 mmHg 80%
    08:00 +25°C° 0 mm 4 mps 743 mmHg 74%
    09:00 +26°C° 0 mm 4 mps 743 mmHg 68%
    10:00 +27°C° 0 mm 4 mps 743 mmHg 62%
    11:00 +28°C° 0 mm 4 mps 742 mmHg 57%
    12:00 +29°C° 0 mm 5 mps 742 mmHg 55%
    13:00 +29°C° 0 mm 5 mps 742 mmHg 53%
    14:00 +30°C° 0 mm 5 mps 742 mmHg 51%
    15:00 +29°C° 0.1 mm 5 mps 742 mmHg 53%
    16:00 +29°C° 0.1 mm 5 mps 741 mmHg 55%
    17:00 +29°C° 0.1 mm 4 mps 741 mmHg 56%
    18:00 +27°C° 0.3 mm 4 mps 741 mmHg 63%
    19:00 +25°C° 0.3 mm 3 mps 741 mmHg 70%
    20:00 +24°C° 0.3 mm 2 mps 741 mmHg 77%
    21:00 +23°C° 0 mm 2 mps 741 mmHg 79%
    22:00 +21°C° 0 mm 2 mps 741 mmHg 81%
    23:00 +21°C° 0 mm 1 mps 741 mmHg 83%

    Tomorrow, 23 July, Monday

    Time Temperature Precipitation Wind Pressure Humidity
    00:00 +21°C° 0 mm 1 mps 741 mmHg 85%
    01:00 +21°C° 0 mm 1 mps 741 mmHg 86%
    02:00 +19°C° 0 mm 2 mps 741 mmHg 87%
    03:00 +19°C° 0 mm 2 mps 741 mmHg 89%
    04:00 +19°C° 0 mm 2 mps 741 mmHg 90%
    05:00 +19°C° 0 mm 2 mps 741 mmHg 91%
    06:00 +20°C° 0 mm 2 mps 741 mmHg 85%
    07:00 +23°C° 0 mm 2 mps 741 mmHg 79%
    08:00 +25°C° 0 mm 2 mps 741 mmHg 72%
    09:00 +26°C° 0.1 mm 3 mps 741 mmHg 67%
    10:00 +27°C° 0.1 mm 3 mps 740 mmHg 62%
    11:00 +28°C° 0.1 mm 3 mps 740 mmHg 57%
    12:00 +28°C° 0.6 mm 3 mps 740 mmHg 56%
    13:00 +29°C° 0.6 mm 3 mps 740 mmHg 55%
    14:00 +29°C° 0.6 mm 4 mps 740 mmHg 55%
    15:00 +28°C° 0.5 mm 3 mps 739 mmHg 58%
    16:00 +28°C° 0.5 mm 3 mps 739 mmHg 61%
    17:00 +27°C° 0.5 mm 2 mps 739 mmHg 64%
    18:00 +26°C° 0 mm 2 mps 739 mmHg 69%
    19:00 +25°C° 0 mm 1 mps 739 mmHg 74%
    20:00 +23°C° 0 mm 1 mps 740 mmHg 79%
    21:00 +23°C° 0 mm 1 mps 740 mmHg 80%
    22:00 +23°C° 0 mm 1 mps 740 mmHg 81%
    23:00 +20°C° 0 mm 0 mps 740 mmHg 82%

    Day after tomorrow, 24 July, Tuesday

    Time Temperature Precipitation Wind Pressure Humidity
    00:00 +20°C° 0.1 mm 0 mps 740 mmHg 82%
    01:00 +22°C° 0.1 mm 1 mps 739 mmHg 82%
    02:00 +21°C° 0.1 mm 1 mps 739 mmHg 82%
    03:00 +21°C° 0.6 mm 1 mps 739 mmHg 83%
    04:00 +21°C° 0.6 mm 1 mps 740 mmHg 84%
    05:00 +21°C° 0.6 mm 1 mps 740 mmHg 85%
    06:00 +22°C° 0.8 mm 1 mps 740 mmHg 83%
    07:00 +23°C° 0.8 mm 1 mps 740 mmHg 82%
    08:00 +24°C° 0.8 mm 2 mps 740 mmHg 80%
    09:00 +25°C° 0.3 mm 2 mps 740 mmHg 71%
    10:00 +27°C° 0.3 mm 2 mps 740 mmHg 62%
    11:00 +29°C° 0.3 mm 3 mps 740 mmHg 54%
    12:00 +30°C° 0.2 mm 2 mps 740 mmHg 52%
    13:00 +30°C° 0.2 mm 2 mps 740 mmHg 50%
    14:00 +31°C° 0.2 mm 2 mps 740 mmHg 48%
    15:00 +30°C° 0 mm 2 mps 740 mmHg 49%
    16:00 +30°C° 0 mm 1 mps 740 mmHg 50%
    17:00 +30°C° 0 mm 1 mps 740 mmHg 51%
    18:00 +29°C° 0 mm 1 mps 741 mmHg 54%
    19:00 +28°C° 0 mm 2 mps 741 mmHg 57%
    20:00 +27°C° 0 mm 2 mps 741 mmHg 59%
    21:00 +26°C° 0.2 mm 2 mps 741 mmHg 63%
    22:00 +25°C° 0.2 mm 2 mps 741 mmHg 66%
    23:00 +24°C° 0.2 mm 3 mps 741 mmHg 70%

    25 July, Wednesday

    Time Temperature Precipitation Wind Pressure Humidity
    00:00 +22°C° 0.3 mm 3 mps 741 mmHg 72%
    01:00 +23°C° 0.3 mm 2 mps 741 mmHg 74%
    02:00 +21°C° 0.3 mm 2 mps 741 mmHg 76%
    03:00 +21°C° 0.3 mm 2 mps 741 mmHg 78%
    04:00 +21°C° 0.3 mm 2 mps 741 mmHg 79%
    05:00 +21°C° 0.3 mm 2 mps 741 mmHg 81%
    06:00 +23°C° 0 mm 2 mps 742 mmHg 76%
    07:00 +25°C° 0 mm 2 mps 742 mmHg 72%
    08:00 +27°C° 0 mm 3 mps 742 mmHg 67%
    09:00 +28°C° 0.1 mm 3 mps 742 mmHg 61%
    10:00 +30°C° 0.1 mm 3 mps 742 mmHg 55%
    11:00 +31°C° 0.1 mm 3 mps 742 mmHg 49%
    12:00 +31°C° 0 mm 3 mps 742 mmHg 48%
    13:00 +33°C° 0 mm 3 mps 742 mmHg 47%
    14:00 +33°C° 0 mm 3 mps 742 mmHg 46%
    15:00 +32°C° 0 mm 2 mps 742 mmHg 47%
    16:00 +32°C° 0 mm 2 mps 742 mmHg 48%
    17:00 +32°C° 0 mm 2 mps 742 mmHg 50%
    18:00 +30°C° 0 mm 2 mps 742 mmHg 54%
    19:00 +28°C° 0 mm 3 mps 742 mmHg 58%
    20:00 +27°C° 0 mm 3 mps 742 mmHg 63%
    21:00 +26°C° 0.4 mm 3 mps 743 mmHg 67%
    22:00 +25°C° 0.4 mm 3 mps 743 mmHg 71%
    23:00 +24°C° 0.4 mm 3 mps 743 mmHg 75%

    26 July, Thursday

    Time Temperature Precipitation Wind Pressure Humidity
    00:00 +24°C° 0.3 mm 3 mps 743 mmHg 78%
    01:00 +23°C° 0.3 mm 2 mps 743 mmHg 81%
    02:00 +23°C° 0.3 mm 2 mps 743 mmHg 85%
    03:00 +23°C° 0 mm 2 mps 743 mmHg 85%
    04:00 +23°C° 0 mm 2 mps 743 mmHg 86%
    05:00 +23°C° 0 mm 2 mps 743 mmHg 86%
    06:00 +24°C° 0 mm 3 mps 744 mmHg 82%
    07:00 +25°C° 0 mm 3 mps 744 mmHg 78%
    08:00 +27°C° 0 mm 3 mps 744 mmHg 74%
    09:00 +28°C° 0.2 mm 3 mps 744 mmHg 68%
    10:00 +29°C° 0.2 mm 3 mps 744 mmHg 61%
    11:00 +31°C° 0.2 mm 3 mps 744 mmHg 55%
    12:00 +31°C° 0 mm 3 mps 744 mmHg 53%
    13:00 +33°C° 0 mm 3 mps 744 mmHg 51%
    14:00 +33°C° 0 mm 3 mps 744 mmHg 49%
    15:00 +33°C° 0 mm 3 mps 744 mmHg 51%
    16:00 +33°C° 0 mm 3 mps 744 mmHg 53%
    17:00 +31°C° 0 mm 3 mps 744 mmHg 55%
    18:00 +30°C° 0 mm 3 mps 744 mmHg 60%
    19:00 +28°C° 0 mm 3 mps 745 mmHg 65%
    20:00 +27°C° 0 mm 3 mps 745 mmHg 71%
    21:00 +26°C° 0.4 mm 3 mps 745 mmHg 74%
    22:00 +25°C° 0.4 mm 3 mps 745 mmHg 78%
    23:00 +24°C° 0.4 mm 3 mps 745 mmHg 82%

    27 July, Friday

    Time Temperature Precipitation Wind Pressure Humidity
    00:00 +24°C° 0.1 mm 3 mps 745 mmHg 82%
    01:00 +24°C° 0.1 mm 3 mps 745 mmHg 82%
    02:00 +24°C° 0.1 mm 3 mps 745 mmHg 83%
    03:00 +22°C° 0 mm 3 mps 745 mmHg 83%
    04:00 +22°C° 0 mm 3 mps 745 mmHg 84%
    05:00 +22°C° 0 mm 3 mps 745 mmHg 85%
    06:00 +23°C° 0.1 mm 4 mps 745 mmHg 81%
    07:00 +25°C° 0.1 mm 4 mps 745 mmHg 76%
    08:00 +27°C° 0.1 mm 4 mps 745 mmHg 72%
    09:00 +28°C° 0 mm 4 mps 745 mmHg 68%
    10:00 +29°C° 0 mm 5 mps 745 mmHg 64%
    11:00 +30°C° 0 mm 5 mps 745 mmHg 59%
    12:00 +32°C° 0 mm 6 mps 745 mmHg 57%
    13:00 +32°C° 0 mm 6 mps 745 mmHg 55%
    14:00 +33°C° 0 mm 6 mps 745 mmHg 53%
    15:00 +33°C° 0.1 mm 6 mps 745 mmHg 53%
    16:00 +32°C° 0.1 mm 5 mps 745 mmHg 53%
    17:00 +32°C° 0.1 mm 5 mps 745 mmHg 54%
    18:00 +30°C° 0 mm 5 mps 745 mmHg 57%
    19:00 +28°C° 0 mm 4 mps 745 mmHg 61%
    20:00 +27°C° 0 mm 4 mps 746 mmHg 64%
    21:00 +26°C° 0 mm 4 mps 746 mmHg 61%
    22:00 +26°C° 0 mm 5 mps 746 mmHg 59%
    23:00 +26°C° 0 mm 6 mps 746 mmHg 56%
    Show more